Lapse_Rate
2.0 1.3 0.9 0.4 0.3 0.5 0.6 0.5 0.8 1.6 2.1 2.5 2.3 2.0 2.0 2.2 1.7 0.9 0.1 -1.2 -1.8 -2.2 -2.2 -2.3 -2.1 -2.5 -2.7 -2.7 -2.8 -2.6 -2.7 -2.8
2.1 2.0 1.2 0.8 0.8 0.5 0.4 0.7 0.6 1.3 2.1 2.5 2.5 2.1 1.5 1.4 1.8 1.0 0.1 -0.4 -0.6 -1.3 -1.6 -1.9 -1.6 -1.6 -2.1 -1.7 -1.8 -1.8 -1.6 -1.9
3.7 2.3 2.1 1.8 0.8 0.3 0.4 0.7 0.9 0.9 1.6 1.9 2.5 2.3 2.1 2.1 2.0 1.4 0.7 0.4 -0.4 -0.3 -0.9 -1.0 -1.0 -1.4 -1.1 -1.0 -1.1 -1.0 0.6 1.1
4.3 3.4 2.1 1.9 1.3 0.6 0.8 0.8 1.3 1.0 1.1 1.8 2.2 2.6 2.9 2.8 2.1 1.7 1.0 0.9 0.5 0.3 0.1 -0.2 -0.5 -0.6 -0.7 -0.0 0.2 1.0 1.7 2.9
4.1 3.2 2.2 1.5 0.5 0.3 0.6 1.1 1.3 1.6 1.4 1.7 2.6 2.6 2.2 2.0 2.1 2.0 1.6 0.7 0.6 0.5 0.2 0.1 0.1 0.2 -0.0 0.7 1.5 2.0 2.2 2.8
3.5 3.0 2.1 1.3 0.1 1.6 0.9 1.5 2.2 2.4 2.3 2.6 2.9 2.3 1.8 2.6 2.9 2.9 1.9 0.8 0.6 0.5 0.4 0.1 0.2 0.3 0.6 1.4 1.7 2.0 2.6 4.0
3.0 2.9 2.6 0.7 2.0 1.4 1.5 2.1 1.7 2.5 2.6 2.3 2.4 2.5 2.4 2.1 1.7 1.5 1.4 1.0 0.4 0.6 0.9 0.7 0.5 0.1 0.5 1.4 2.3 2.2 2.9 3.6
3.2 3.3 1.4 1.5 0.6 1.7 1.6 2.5 1.8 2.2 2.3 2.9 2.6 1.4 1.8 2.0 2.0 1.7 1.1 0.9 0.5 0.3 0.7 0.7 0.3 0.5 1.4 2.0 2.4 2.5 2.5 2.3
3.3 1.9 1.6 2.0 2.7 1.8 1.8 2.0 1.9 2.5 3.2 2.6 2.7 2.9 2.6 2.2 1.8 1.3 1.2 1.1 1.2 1.4 0.8 1.0 0.5 1.0 2.0 2.7 2.7 2.7 2.8 2.2
2.3 1.0 1.4 1.4 1.0 0.9 1.2 1.6 1.8 2.3 2.9 3.0 2.8 2.4 2.3 2.3 1.6 1.4 0.9 1.5 2.9 1.1 0.7 1.0 1.0 1.0 2.4 3.1 2.3 2.0 1.7 1.6
0.2 0.9 1.5 1.0 0.5 0.5 0.9 1.5 1.9 1.9 2.3 2.8 2.3 2.3 2.6 2.1 2.1 1.9 1.6 1.8 2.1 0.9 0.6 0.8 1.3 1.5 1.7 2.2 2.1 1.7 1.1 1.0
0.5 0.2 0.4 0.2 0.0 0.3 0.3 0.8 1.3 1.2 1.7 2.5 2.8 3.0 3.2 3.4 2.8 2.2 1.7 2.3 1.8 1.0 1.2 1.5 1.9 2.2 2.3 2.3 2.2 1.9 1.3 1.2
0.3 0.3 -0.3 -0.7 -0.8 -0.3 0.1 0.3 0.8 1.1 2.3 3.1 3.4 3.6 3.9 3.4 2.9 2.7 2.7 1.9 1.7 0.8 1.3 1.9 2.2 2.3 2.6 2.6 2.5 2.2 1.4 1.1
0.3 0.3 0.3 -0.2 -1.1 -0.8 0.2 0.8 0.9 1.8 2.6 3.1 3.4 3.6 3.4 3.3 3.6 3.3 2.6 2.1 1.5 0.9 1.0 1.4 1.7 2.2 2.5 2.6 2.3 2.0 1.8 1.4
0.4 0.4 -0.3 -0.6 -0.1 0.2 0.9 1.1 0.8 1.9 2.7 2.7 2.8 3.2 3.8 4.2 4.0 3.3 2.4 2.0 1.3 0.5 0.5 1.1 1.4 2.0 2.5 2.6 2.2 1.6 1.5 1.6
1.0 0.7 0.1 -0.2 0.5 0.7 1.8 2.2 2.6 2.7 2.2 3.0 3.4 4.0 4.4 4.5 4.1 3.7 3.0 2.2 1.3 1.1 0.8 0.7 0.3 1.6 2.7 0.7 1.3 1.3 1.0 1.4
2.6 1.7 0.8 1.3 1.3 2.0 2.4 3.5 3.5 3.0 3.4 4.0 4.6 5.1 5.0 4.7 4.2 3.8 3.2 1.9 1.2 0.7 -0.3 -1.1 -2.9 -0.7 3.3 2.6 0.5 -0.7 0.3 0.3
4.6 2.3 2.1 2.1 2.4 2.0 2.5 4.2 3.8 4.1 4.2 5.2 5.7 5.6 5.2 4.8 4.3 4.1 3.1 2.2 1.3 0.8 -1.1 -1.0 -2.0 -3.1 3.1 3.1 2.1 -2.0 -2.3 -2.7
4.2 3.3 2.9 3.1 2.7 3.0 3.9 4.2 4.3 4.8 4.9 5.6 5.7 5.5 5.0 4.4 4.1 3.8 2.8 2.4 2.0 1.3 1.2 0.9 1.1 2.5 3.4 3.0 2.7 -1.3 -3.8 -2.0
Wind_Speed
8 8 8 8 8 8 7 6 6 6 6 8 8 8 10 12 11 12 11 13 14 11 11 11 10 5 7 7 8 7 6 10
7 7 8 9 7 8 7 7 5 4 3 4 3 3 2 4 10 12 12 13 13 13 10 11 10 8 8 9 7 9 9 12
9 7 6 7 7 8 7 7 6 5 3 2 3 3 3 3 8 11 12 14 15 14 11 8 11 6 8 9 9 6 7 10
12 9 8 9 8 7 7 6 6 5 6 3 3 4 3 3 3 4 11 14 15 14 15 13 10 8 6 8 8 10 7 7
11 11 8 9 7 7 7 6 7 6 7 5 5 3 3 2 2 3 7 14 14 15 14 12 11 9 7 7 7 7 6 7
15 11 10 8 8 7 6 6 6 6 7 7 6 6 4 3 3 5 5 10 14 14 13 12 10 8 7 7 7 8 5 6
11 8 10 7 7 6 6 8 7 6 6 7 8 7 5 4 4 4 4 4 7 12 12 12 11 10 6 6 7 7 7 6
12 11 9 10 9 7 7 8 7 6 7 6 6 9 7 6 5 3 4 3 3 6 11 9 9 11 11 10 7 7 8 6
13 13 7 8 10 7 8 8 8 7 6 6 8 6 5 4 5 4 3 3 3 10 10 10 12 12 12 11 6 6 7 6
13 7 9 8 8 7 8 8 7 6 6 6 6 7 7 6 6 4 4 5 7 9 10 8 10 12 12 10 6 8 8 8
8 9 9 5 7 7 7 7 8 6 6 6 6 7 7 6 5 5 5 5 7 7 7 8 9 11 11 9 7 8 8 6
9 7 6 7 6 6 6 7 7 6 6 6 7 7 6 6 6 5 5 7 9 6 6 6 6 7 9 6 6 8 8 7
8 8 8 6 6 5 6 6 6 6 5 5 7 7 6 6 6 6 8 6 9 7 7 5 5 6 7 7 7 7 8 8
9 8 7 7 5 5 4 5 5 5 5 5 6 6 6 6 6 5 7 7 6 7 7 6 6 5 5 5 6 7 7 8
11 9 7 6 6 6 5 5 4 4 5 5 5 5 6 5 5 5 5 7 5 5 5 5 6 5 7 6 7 7 7 8
14 11 9 8 8 8 6 6 6 5 5 5 5 5 5 6 6 5 6 6 4 5 5 6 7 4 5 5 6 6 6 7
15 13 13 12 11 10 9 8 7 6 5 5 5 5 5 5 6 6 5 6 4 3 4 5 5 3 11 11 8 3 6 7
16 15 14 12 13 11 10 9 7 6 5 4 5 5 5 6 6 7 6 6 5 4 3 3 4 3 12 10 10 3 4 4
15 13 13 11 10 10 8 8 8 7 6 6 6 6 6 6 6 6 6 5 5 4 3 3 4 5 12 9 8 5 3 5
Wind_Direction
137 120 115 113 107 99 88 68 59 68 73 69 62 55 42 41 49 50 47 46 45 48 36 16 15 25 19 12 9 1 356 339
120 126 118 107 94 91 81 81 51 60 79 88 74 71 43 48 63 59 53 38 42 40 39 30 23 26 11 11 360 4 4 353
141 139 123 110 117 109 104 94 76 64 60 77 101 93 50 55 60 64 45 43 40 40 32 29 23 21 14 10 8 0 13 11
161 146 126 124 127 120 116 108 97 82 92 98 86 76 55 36 25 53 47 47 41 39 38 34 23 21 13 3 9 8 7 15
154 142 132 137 133 130 131 121 108 94 93 83 81 97 100 53 52 56 60 47 41 37 39 35 24 13 14 6 8 15 6 15
153 144 136 135 145 140 121 104 95 97 96 101 104 97 87 82 47 48 53 47 35 31 29 30 25 12 13 11 5 23 9 17
124 124 135 140 129 115 95 91 75 75 79 97 109 101 93 81 67 63 54 33 27 21 18 28 15 16 7 11 14 20 20 17
135 145 164 147 134 124 105 94 84 83 84 78 90 109 103 86 58 41 67 36 14 26 19 25 8 6 7 13 14 18 28 14
156 180 139 122 139 122 111 104 94 89 83 87 107 85 83 76 74 68 43 54 28 24 25 24 10 2 14 17 19 14 24 16
179 126 133 129 131 127 127 116 99 93 101 94 89 91 93 90 82 70 56 29 46 33 31 23 11 12 15 8 28 23 18 11
152 143 141 129 128 123 115 110 114 110 106 102 107 107 98 92 95 79 66 53 46 40 31 25 19 19 18 23 37 28 26 14
146 141 127 129 120 126 125 120 122 116 112 109 112 109 104 102 99 92 74 64 45 43 30 27 22 19 19 26 40 31 29 23
146 147 142 138 133 135 136 136 129 133 126 117 114 123 115 107 94 86 84 70 49 45 36 31 25 22 28 39 38 32 28 25
154 154 155 150 138 138 145 142 139 136 124 116 123 128 115 104 104 98 96 84 56 48 42 31 16 18 39 57 46 34 30 25
170 162 153 149 150 152 149 148 148 136 126 121 128 129 126 127 122 107 103 104 72 47 40 34 18 25 47 54 49 35 25 22
176 164 162 168 167 158 166 152 158 151 132 136 146 137 136 135 128 124 114 111 90 73 57 45 25 18 73 54 50 37 28 20
176 166 170 174 172 171 168 162 167 153 147 161 173 151 153 151 145 140 123 122 106 78 57 54 20 350 58 67 65 31 24 18
178 175 175 175 174 170 170 175 156 161 158 175 162 156 148 154 150 149 139 135 140 114 62 35 7 354 53 57 61 36 16 360
176 174 171 170 157 167 164 162 162 167 164 158 146 142 141 142 143 152 136 145 150 149 116 71 42 41 47 46 48 20 12 357